This demonstration page uses our WeatherBlox Daily Observations layout. Learn more.

Left ArrowRight Arrow

53.62937, 11.41316

Hourly Observations for July 29, 2018

Temp ( °F °C ) Dew Point ( °F °C ) Humidity (%) Winds ( mph kmh ) Pressure ( in mb ) Visibility ( mi km ) Precip ( " mm )
6:50 am 06:50 Mostly Sunny 59 15 59 15 100 100 VRB 1 2 29.97 1015 7 11 N/A
7:20 am 07:20 Mostly Sunny 63 17 63 17 100 100 VRB 1 2 29.97 1015 7 11 N/A
7:50 am 07:50 Mostly Sunny 64 18 63 17 94 94 VRB 2 4 29.97 1015 7 11 N/A
8:20 am 08:20 Mostly Sunny 66 19 63 17 88 88 SW 5 7 29.97 1015 7 11 N/A
8:50 am 08:50 Mostly Sunny 66 19 59 15 78 78 SW 5 7 30.00 1016 7 11 N/A
9:20 am 09:20 Mostly Sunny 68 20 55 13 64 64 SW 6 9 30.00 1016 7 11 N/A
9:50 am 09:50 Mostly Sunny 70 21 54 12 57 57 S 6 9 30.00 1016 7 11 N/A
10:20 am 10:20 Mostly Sunny 70 21 54 12 57 57 WSW 5 7 30.00 1016 7 11 N/A
10:50 am 10:50 Mostly Sunny 73 23 54 12 50 50 VRB 3 6 30.00 1016 7 11 N/A
11:20 am 11:20 Mostly Sunny 72 22 52 11 50 50 VRB 6 9 30.00 1016 7 11 N/A
11:50 am 11:50 Mostly Sunny 73 23 52 11 47 47 SW 6 9 30.00 1016 7 11 N/A
12:20 pm 12:20 Mostly Sunny 73 23 52 11 47 47 SE 6 9 30.00 1016 7 11 N/A
12:50 pm 12:50 Mostly Sunny 77 25 50 10 39 39 SE 6 9 30.00 1016 7 11 N/A
1:20 pm 13:20 Mostly Sunny 77 25 50 10 39 39 E 5 7 30.00 1016 7 11 N/A
1:50 pm 13:50 Mostly Sunny 77 25 50 10 39 39 VRB 3 6 29.97 1015 7 11 N/A
2:20 pm 14:20 Mostly Sunny 77 25 48 9 36 36 ESE 6 9 29.97 1015 7 11 N/A
2:50 pm 14:50 Mostly Sunny 81 27 50 10 34 34 VRB 3 6 29.97 1015 7 11 N/A
3:20 pm 15:20 Mostly Sunny 79 26 50 10 37 37 SSE 6 9 29.97 1015 7 11 N/A
3:50 pm 15:50 Mostly Sunny 81 27 52 11 37 37 SE 6 9 29.94 1014 7 11 N/A
4:20 pm 16:20 Mostly Sunny 82 28 54 12 37 37 SE 7 11 29.94 1014 7 11 N/A
4:50 pm 16:50 Mostly Sunny 82 28 52 11 35 35 SE 6 9 29.94 1014 7 11 N/A
5:20 pm 17:20 Mostly Sunny 82 28 54 12 37 37 SE 8 13 29.94 1014 7 11 N/A
5:50 pm 17:50 Mostly Sunny 82 28 54 12 37 37 VRB 8 13 29.91 1013 7 11 N/A
6:20 pm 18:20 Mostly Sunny 82 28 54 12 37 37 SE 7 11 29.91 1013 7 11 N/A
6:50 pm 18:50 Mostly Sunny 82 28 54 12 37 37 SSE 8 13 29.91 1013 7 11 N/A
7:20 pm 19:20 Mostly Sunny 81 27 54 12 39 39 SE 7 11 29.91 1013 7 11 N/A
7:50 pm 19:50 Mostly Sunny 81 27 55 13 42 42 SSE 6 9 29.91 1013 7 11 N/A
8:20 pm 20:20 Mostly Sunny 81 27 55 13 42 42 SSE 6 9 29.91 1013 7 11 N/A
8:50 pm 20:50 Mostly Sunny 79 26 55 13 45 45 SE 5 7 29.91 1013 7 11 N/A

Powered by AerisWeather